Year,Month,Day,Hour,Minute,Value (Times are PST for temperature in C)
2008,07,14,00,00,14.60
2008,07,14,00,01,14.60
2008,07,14,00,03,14.60
2008,07,14,00,04,14.60
2008,07,14,00,05,14.60
2008,07,14,00,06,14.50
2008,07,14,00,08,14.40
2008,07,14,00,09,14.40
2008,07,14,00,10,14.40
2008,07,14,00,11,14.40
2008,07,14,00,12,14.40
2008,07,14,00,13,14.40
2008,07,14,00,14,14.40
2008,07,14,00,15,14.30
2008,07,14,00,16,14.30
2008,07,14,00,17,14.30
2008,07,14,00,18,14.30
2008,07,14,00,19,14.30
2008,07,14,00,20,14.30
2008,07,14,00,21,14.30
2008,07,14,00,22,14.30
2008,07,14,00,23,14.30
2008,07,14,00,24,14.20
2008,07,14,00,25,14.20
2008,07,14,00,26,14.20
2008,07,14,00,27,14.20
2008,07,14,00,28,14.30
2008,07,14,00,29,14.20
2008,07,14,00,30,14.30
2008,07,14,00,31,14.30
2008,07,14,00,32,14.30
2008,07,14,00,33,14.30
2008,07,14,00,34,14.30
2008,07,14,00,35,14.30
2008,07,14,00,36,14.30
2008,07,14,00,37,14.30
2008,07,14,00,38,14.30
2008,07,14,00,39,14.30
2008,07,14,00,40,14.30
2008,07,14,00,41,14.30
2008,07,14,00,42,14.20
2008,07,14,00,43,14.20
2008,07,14,00,44,14.20
2008,07,14,00,45,14.20
2008,07,14,00,46,14.20
2008,07,14,00,47,14.20
2008,07,14,00,48,14.20
2008,07,14,00,49,14.10
2008,07,14,00,50,14.10
2008,07,14,00,51,14.10
2008,07,14,00,52,14.10
2008,07,14,00,53,14.10
2008,07,14,00,54,14.10
2008,07,14,00,55,14.10
2008,07,14,00,56,14.10
2008,07,14,00,57,14.10
2008,07,14,00,58,14.00
2008,07,14,00,59,14.00
2008,07,14,01,00,13.90
2008,07,14,01,01,13.90
2008,07,14,01,02,13.90
2008,07,14,01,03,13.90
2008,07,14,01,04,13.90
2008,07,14,01,05,13.90
2008,07,14,01,06,13.90
2008,07,14,01,07,13.80
2008,07,14,01,08,13.80
2008,07,14,01,09,13.80
2008,07,14,01,10,13.80
2008,07,14,01,11,13.80
2008,07,14,01,13,13.70
2008,07,14,01,14,13.70
2008,07,14,01,15,13.70
2008,07,14,01,16,13.70
2008,07,14,01,17,13.60
2008,07,14,01,18,13.60
2008,07,14,01,19,13.60
2008,07,14,01,20,13.60
2008,07,14,01,21,13.50
2008,07,14,01,22,13.50
2008,07,14,01,23,13.40
2008,07,14,01,24,13.40
2008,07,14,01,25,13.40
2008,07,14,01,26,13.40
2008,07,14,01,27,13.40
2008,07,14,01,28,13.40
2008,07,14,01,29,13.40
2008,07,14,01,30,13.30
2008,07,14,01,31,13.30
2008,07,14,01,32,13.30
2008,07,14,01,33,13.30
2008,07,14,01,34,13.30
2008,07,14,01,35,13.30
2008,07,14,01,36,13.30
2008,07,14,01,37,13.30
2008,07,14,01,38,13.20
2008,07,14,01,39,13.20
2008,07,14,01,40,13.20
2008,07,14,01,41,13.20
2008,07,14,01,42,13.20
2008,07,14,01,43,13.20
2008,07,14,01,44,13.20
2008,07,14,01,45,13.10
2008,07,14,01,46,13.10
2008,07,14,01,47,13.10
2008,07,14,01,48,13.10
2008,07,14,01,49,13.10
2008,07,14,01,50,13.10
2008,07,14,01,51,13.00
2008,07,14,01,52,13.00
2008,07,14,01,53,13.00
2008,07,14,01,54,12.90
2008,07,14,01,55,12.90
2008,07,14,01,56,12.90
2008,07,14,01,57,12.90
2008,07,14,01,58,12.90
2008,07,14,01,59,12.90
2008,07,14,02,00,12.90
2008,07,14,02,01,12.90
2008,07,14,02,02,12.80
2008,07,14,02,03,12.80
2008,07,14,02,04,12.80
2008,07,14,02,05,12.80
2008,07,14,02,06,12.80
2008,07,14,02,07,12.80
2008,07,14,02,08,12.80
2008,07,14,02,09,12.80
2008,07,14,02,10,12.80
2008,07,14,02,11,12.80
2008,07,14,02,12,12.80
2008,07,14,02,13,12.80
2008,07,14,02,14,12.80
2008,07,14,02,15,12.70
2008,07,14,02,16,12.70
2008,07,14,02,17,12.70
2008,07,14,02,18,12.70
2008,07,14,02,19,12.70
2008,07,14,02,20,12.70
2008,07,14,02,21,12.70
2008,07,14,02,22,12.70
2008,07,14,02,23,12.70
2008,07,14,02,24,12.70
2008,07,14,02,25,12.70
2008,07,14,02,26,12.70
2008,07,14,02,27,12.70
2008,07,14,02,28,12.70
2008,07,14,02,29,12.70
2008,07,14,02,30,12.70
2008,07,14,02,31,12.70
2008,07,14,02,32,12.70
2008,07,14,02,33,12.70
2008,07,14,02,34,12.70
2008,07,14,02,35,12.70
2008,07,14,02,36,12.60
2008,07,14,02,37,12.70
2008,07,14,02,38,12.60
2008,07,14,02,39,12.60
2008,07,14,02,40,12.60
2008,07,14,02,41,12.60
2008,07,14,02,42,12.60
2008,07,14,02,43,12.60
2008,07,14,02,44,12.60
2008,07,14,02,45,12.60
2008,07,14,02,46,12.60
2008,07,14,02,47,12.60
2008,07,14,02,48,12.50
2008,07,14,02,49,12.50
2008,07,14,02,50,12.50
2008,07,14,02,51,12.50
2008,07,14,02,52,12.40
2008,07,14,02,53,12.40
2008,07,14,02,54,12.40
2008,07,14,02,55,12.40
2008,07,14,02,56,12.40
2008,07,14,02,57,12.40
2008,07,14,02,58,12.40
2008,07,14,02,59,12.30
2008,07,14,03,00,12.30
2008,07,14,03,01,12.30
2008,07,14,03,02,12.30
2008,07,14,03,03,12.30
2008,07,14,03,04,12.30
2008,07,14,03,05,12.30
2008,07,14,03,06,12.30
2008,07,14,03,07,12.20
2008,07,14,03,08,12.20
2008,07,14,03,09,12.20
2008,07,14,03,10,12.20
2008,07,14,03,11,12.20
2008,07,14,03,12,12.20
2008,07,14,03,14,12.10
2008,07,14,03,15,12.10
2008,07,14,03,16,12.10
2008,07,14,03,17,12.10
2008,07,14,03,18,12.10
2008,07,14,03,19,12.10
2008,07,14,03,20,12.10
2008,07,14,03,21,12.10
2008,07,14,03,22,12.10
2008,07,14,03,23,12.00
2008,07,14,03,24,12.00
2008,07,14,03,25,12.00
2008,07,14,03,26,12.00
2008,07,14,03,27,12.00
2008,07,14,03,28,12.00
2008,07,14,03,29,12.00
2008,07,14,03,30,12.00
2008,07,14,03,31,11.90
2008,07,14,03,32,11.90
2008,07,14,03,33,11.90
2008,07,14,03,34,11.90
2008,07,14,03,35,11.90
2008,07,14,03,36,11.90
2008,07,14,03,37,11.90
2008,07,14,03,38,11.90
2008,07,14,03,39,11.90
2008,07,14,03,40,11.90
2008,07,14,03,41,11.80
2008,07,14,03,42,11.80
2008,07,14,03,43,11.80
2008,07,14,03,44,11.80
2008,07,14,03,45,11.80
2008,07,14,03,46,11.80
2008,07,14,03,47,11.80
2008,07,14,03,48,11.70
2008,07,14,03,49,11.70
2008,07,14,03,50,11.70
2008,07,14,03,51,11.70
2008,07,14,03,52,11.70
2008,07,14,03,53,11.70
2008,07,14,03,54,11.60
2008,07,14,03,55,11.60
2008,07,14,03,56,11.60
2008,07,14,03,57,11.60
2008,07,14,03,58,11.60
2008,07,14,03,59,11.50
2008,07,14,04,00,11.50
2008,07,14,04,01,11.50
2008,07,14,04,02,11.40
2008,07,14,04,03,11.40
2008,07,14,04,04,11.40
2008,07,14,04,05,11.40
2008,07,14,04,06,11.30
2008,07,14,04,07,11.30
2008,07,14,04,08,11.30
2008,07,14,04,09,11.30
2008,07,14,04,10,11.30
2008,07,14,04,11,11.30
2008,07,14,04,12,11.30
2008,07,14,04,13,11.20
2008,07,14,04,14,11.20
2008,07,14,04,15,11.20
2008,07,14,04,16,11.20
2008,07,14,04,17,11.20
2008,07,14,04,18,11.20
2008,07,14,04,19,11.10
2008,07,14,04,20,11.10
2008,07,14,04,21,11.10
2008,07,14,04,22,11.10
2008,07,14,04,23,11.10
2008,07,14,04,24,11.10
2008,07,14,04,25,11.00
2008,07,14,04,26,11.00
2008,07,14,04,27,11.00
2008,07,14,04,28,10.90
2008,07,14,04,29,10.90
2008,07,14,04,30,10.90
2008,07,14,04,31,10.90
2008,07,14,04,32,10.90
2008,07,14,04,33,10.90
2008,07,14,04,34,10.90
2008,07,14,04,35,10.80
2008,07,14,04,36,10.80
2008,07,14,04,37,10.80
2008,07,14,04,38,10.80
2008,07,14,04,39,10.80
2008,07,14,04,40,10.80
2008,07,14,04,41,10.80
2008,07,14,04,42,10.80
2008,07,14,04,43,10.80
2008,07,14,04,44,10.80
2008,07,14,04,45,10.80
2008,07,14,04,46,10.80
2008,07,14,04,47,10.80
2008,07,14,04,48,10.80
2008,07,14,04,49,10.80
2008,07,14,04,50,10.80
2008,07,14,04,51,10.80
2008,07,14,04,52,10.70
2008,07,14,04,53,10.70
2008,07,14,04,54,10.70
2008,07,14,04,55,10.70
2008,07,14,04,56,10.70
2008,07,14,04,57,10.70
2008,07,14,04,58,10.70
2008,07,14,04,59,10.70
2008,07,14,05,00,10.70
2008,07,14,05,01,10.70
2008,07,14,05,02,10.70
2008,07,14,05,03,10.60
2008,07,14,05,04,10.60
2008,07,14,05,05,10.60
2008,07,14,05,06,10.60
2008,07,14,05,07,10.60
2008,07,14,05,08,10.60
2008,07,14,05,09,10.60
2008,07,14,05,10,10.60
2008,07,14,05,11,10.60
2008,07,14,05,12,10.50
2008,07,14,05,13,10.50
2008,07,14,05,15,10.50
2008,07,14,05,16,10.40
2008,07,14,05,17,10.40
2008,07,14,05,18,10.40
2008,07,14,05,19,10.40
2008,07,14,05,20,10.40
2008,07,14,05,21,10.40
2008,07,14,05,22,10.40
2008,07,14,05,23,10.30
2008,07,14,05,24,10.30
2008,07,14,05,25,10.30
2008,07,14,05,26,10.30
2008,07,14,05,27,10.30
2008,07,14,05,28,10.30
2008,07,14,05,29,10.30
2008,07,14,05,30,10.30
2008,07,14,05,31,10.20
2008,07,14,05,32,10.20
2008,07,14,05,33,10.20
2008,07,14,05,34,10.20
2008,07,14,05,35,10.20
2008,07,14,05,36,10.20
2008,07,14,05,37,10.20
2008,07,14,05,38,10.20
2008,07,14,05,39,10.20
2008,07,14,05,40,10.10
2008,07,14,05,41,10.10
2008,07,14,05,42,10.10
2008,07,14,05,43,10.10
2008,07,14,05,44,10.10
2008,07,14,05,45,10.10
2008,07,14,05,46,10.10
2008,07,14,05,47,10.10
2008,07,14,05,48,10.10
2008,07,14,05,49,10.10
2008,07,14,05,50,10.00
2008,07,14,05,51,10.00
2008,07,14,05,52,10.00
2008,07,14,05,53,10.00
2008,07,14,05,54,10.00
2008,07,14,05,55,9.90
2008,07,14,05,56,9.90
2008,07,14,05,57,9.90
2008,07,14,05,58,9.90
2008,07,14,05,59,9.90
2008,07,14,06,00,9.90
2008,07,14,06,01,9.90
2008,07,14,06,02,9.90
2008,07,14,06,03,9.90
2008,07,14,06,04,9.90
2008,07,14,06,05,9.90
2008,07,14,06,06,9.90
2008,07,14,06,07,10.00
2008,07,14,06,08,10.00
2008,07,14,06,09,10.00
2008,07,14,06,10,10.00
2008,07,14,06,11,10.10
2008,07,14,06,12,10.10
2008,07,14,06,13,10.10
2008,07,14,06,14,10.10
2008,07,14,06,15,10.10
2008,07,14,06,16,10.10
2008,07,14,06,17,10.10
2008,07,14,06,18,10.10
2008,07,14,06,19,10.10
2008,07,14,06,20,10.10
2008,07,14,06,21,10.20
2008,07,14,06,22,10.20
2008,07,14,06,23,10.20
2008,07,14,06,24,10.20
2008,07,14,06,25,10.30
2008,07,14,06,26,10.30
2008,07,14,06,27,10.30
2008,07,14,06,28,10.30
2008,07,14,06,29,10.30
2008,07,14,06,30,10.40
2008,07,14,06,31,10.40
2008,07,14,06,32,10.40
2008,07,14,06,33,10.40
2008,07,14,06,34,10.40
2008,07,14,06,35,10.40
2008,07,14,06,36,10.40
2008,07,14,06,37,10.40
2008,07,14,06,38,10.40
2008,07,14,06,39,10.50
2008,07,14,06,40,10.40
2008,07,14,06,41,10.50
2008,07,14,06,42,10.50
2008,07,14,06,43,10.50
2008,07,14,06,44,10.50
2008,07,14,06,45,10.50
2008,07,14,06,46,10.50
2008,07,14,06,47,10.60
2008,07,14,06,48,10.60
2008,07,14,06,49,10.60
2008,07,14,06,50,10.60
2008,07,14,06,51,10.60
2008,07,14,06,52,10.60
2008,07,14,06,53,10.60
2008,07,14,06,54,10.70
2008,07,14,06,55,10.70
2008,07,14,06,56,10.70
2008,07,14,06,57,10.70
2008,07,14,06,58,10.70
2008,07,14,06,59,10.70
2008,07,14,07,00,10.70
2008,07,14,07,01,10.80
2008,07,14,07,02,10.80
2008,07,14,07,03,10.80
2008,07,14,07,04,10.80
2008,07,14,07,05,10.80
2008,07,14,07,06,10.80
2008,07,14,07,07,10.80
2008,07,14,07,08,10.80
2008,07,14,07,09,10.80
2008,07,14,07,10,10.90
2008,07,14,07,11,10.90
2008,07,14,07,12,10.90
2008,07,14,07,13,10.90
2008,07,14,07,14,10.90
2008,07,14,07,16,11.10
2008,07,14,07,17,11.10
2008,07,14,07,18,11.10
2008,07,14,07,19,11.10
2008,07,14,07,20,11.10
2008,07,14,07,21,11.20
2008,07,14,07,22,11.20
2008,07,14,07,23,11.20
2008,07,14,07,24,11.20
2008,07,14,07,25,11.20
2008,07,14,07,26,11.30
2008,07,14,07,27,11.30
2008,07,14,07,28,11.30
2008,07,14,07,29,11.30
2008,07,14,07,30,11.30
2008,07,14,07,31,11.30
2008,07,14,07,32,11.40
2008,07,14,07,33,11.40
2008,07,14,07,34,11.40
2008,07,14,07,35,11.40
2008,07,14,07,36,11.40
2008,07,14,07,37,11.40
2008,07,14,07,38,11.40
2008,07,14,07,39,11.50
2008,07,14,07,40,11.50
2008,07,14,07,41,11.50
2008,07,14,07,42,11.50
2008,07,14,07,43,11.60
2008,07,14,07,44,11.60
2008,07,14,07,45,11.60
2008,07,14,07,46,11.60
2008,07,14,07,47,11.60
2008,07,14,07,48,11.70
2008,07,14,07,49,11.70
2008,07,14,07,50,11.70
2008,07,14,07,51,11.70
2008,07,14,07,52,11.70
2008,07,14,07,53,11.80
2008,07,14,07,54,11.80
2008,07,14,07,55,11.80
2008,07,14,07,56,11.80
2008,07,14,07,57,11.90
2008,07,14,07,58,11.90
2008,07,14,07,59,11.90
2008,07,14,08,00,11.90
2008,07,14,08,01,12.00
2008,07,14,08,02,12.00
2008,07,14,08,03,12.10
2008,07,14,08,04,12.10
2008,07,14,08,05,12.10
2008,07,14,08,06,12.10
2008,07,14,08,07,12.20
2008,07,14,08,08,12.20
2008,07,14,08,09,12.20
2008,07,14,08,10,12.30
2008,07,14,08,11,12.30
2008,07,14,08,12,12.30
2008,07,14,08,13,12.30
2008,07,14,08,14,12.40
2008,07,14,08,15,12.40
2008,07,14,08,16,12.40
2008,07,14,08,17,12.50
2008,07,14,08,18,12.50
2008,07,14,08,19,12.60
2008,07,14,08,20,12.60
2008,07,14,08,21,12.70
2008,07,14,08,22,12.70
2008,07,14,08,23,12.80
2008,07,14,08,24,12.80
2008,07,14,08,25,12.90
2008,07,14,08,26,13.00
2008,07,14,08,27,13.10
2008,07,14,08,28,13.10
2008,07,14,08,29,13.20
2008,07,14,08,30,13.30
2008,07,14,08,31,13.40
2008,07,14,08,32,13.40
2008,07,14,08,33,13.60
2008,07,14,08,34,13.70
2008,07,14,08,35,13.70
2008,07,14,08,36,13.80
2008,07,14,08,37,13.90
2008,07,14,08,38,14.10
2008,07,14,08,39,14.20
2008,07,14,08,40,14.20
2008,07,14,08,41,14.30
2008,07,14,08,42,14.30
2008,07,14,08,43,14.30
2008,07,14,08,44,14.30
2008,07,14,08,45,14.30
2008,07,14,08,46,14.40
2008,07,14,08,47,14.40
2008,07,14,08,48,14.50
2008,07,14,08,49,14.60
2008,07,14,08,50,14.60
2008,07,14,08,51,14.70
2008,07,14,08,52,14.70
2008,07,14,08,53,14.70
2008,07,14,08,54,14.80
2008,07,14,08,55,14.80
2008,07,14,08,56,14.80
2008,07,14,08,57,14.90
2008,07,14,08,58,14.80
2008,07,14,08,59,14.90
2008,07,14,09,00,14.90
2008,07,14,09,01,15.00
2008,07,14,09,02,15.00
2008,07,14,09,03,15.00
2008,07,14,09,04,15.00
2008,07,14,09,05,15.20
2008,07,14,09,06,15.30
2008,07,14,09,07,15.40
2008,07,14,09,08,15.40
2008,07,14,09,09,15.60
2008,07,14,09,10,15.70
2008,07,14,09,11,15.70
2008,07,14,09,12,15.80
2008,07,14,09,13,15.90
2008,07,14,09,14,15.90
2008,07,14,09,15,16.00
2008,07,14,09,17,16.10
2008,07,14,09,18,16.10
2008,07,14,09,19,16.10
2008,07,14,09,20,16.10
2008,07,14,09,21,16.20
2008,07,14,09,22,16.20
2008,07,14,09,23,16.20
2008,07,14,09,24,16.20
2008,07,14,09,25,16.30
2008,07,14,09,26,16.30
2008,07,14,09,27,16.40
2008,07,14,09,28,16.50
2008,07,14,09,29,16.60
2008,07,14,09,30,16.60
2008,07,14,09,31,16.70
2008,07,14,09,32,16.70
2008,07,14,09,33,16.80
2008,07,14,09,34,16.80
2008,07,14,09,35,16.90
2008,07,14,09,36,16.90
2008,07,14,09,37,16.90
2008,07,14,09,38,16.90
2008,07,14,09,39,17.00
2008,07,14,09,40,17.10
2008,07,14,09,41,17.10
2008,07,14,09,42,17.20
2008,07,14,09,43,17.20
2008,07,14,09,44,17.20
2008,07,14,09,45,17.30
2008,07,14,09,46,17.30
2008,07,14,09,47,17.40
2008,07,14,09,48,17.40
2008,07,14,09,49,17.40
2008,07,14,09,50,17.50
2008,07,14,09,51,17.60
2008,07,14,09,52,17.70
2008,07,14,09,53,17.70
2008,07,14,09,54,17.70
2008,07,14,09,55,17.70
2008,07,14,09,56,17.80
2008,07,14,09,57,17.80
2008,07,14,09,58,17.80
2008,07,14,09,59,17.90
2008,07,14,10,00,17.90
2008,07,14,10,01,17.90
2008,07,14,10,02,17.90
2008,07,14,10,03,18.00
2008,07,14,10,04,18.10
2008,07,14,10,05,18.10
2008,07,14,10,06,18.20
2008,07,14,10,07,18.20
2008,07,14,10,08,18.30
2008,07,14,10,09,18.30
2008,07,14,10,10,18.40
2008,07,14,10,11,18.40
2008,07,14,10,12,18.50
2008,07,14,10,13,18.60
2008,07,14,10,14,18.60
2008,07,14,10,15,18.60
2008,07,14,10,16,18.70
2008,07,14,10,17,18.70
2008,07,14,10,18,18.70
2008,07,14,10,19,18.80
2008,07,14,10,20,18.80
2008,07,14,10,21,18.80
2008,07,14,10,22,18.90
2008,07,14,10,23,18.90
2008,07,14,10,24,19.00
2008,07,14,10,25,19.10
2008,07,14,10,26,19.10
2008,07,14,10,27,19.10
2008,07,14,10,28,19.20
2008,07,14,10,29,19.20
2008,07,14,10,30,19.20
2008,07,14,10,31,19.30
2008,07,14,10,32,19.30
2008,07,14,10,33,19.40
2008,07,14,10,34,19.40
2008,07,14,10,35,19.40
2008,07,14,10,36,19.50
2008,07,14,10,37,19.60
2008,07,14,10,38,19.60
2008,07,14,10,39,19.60
2008,07,14,10,40,19.60
2008,07,14,10,41,19.60
2008,07,14,10,42,19.70
2008,07,14,10,43,19.70
2008,07,14,10,44,19.70
2008,07,14,10,45,19.70
2008,07,14,10,46,19.80
2008,07,14,10,47,19.80
2008,07,14,10,48,19.70
2008,07,14,10,49,19.70
2008,07,14,10,50,19.70
2008,07,14,10,51,19.60
2008,07,14,10,52,19.60
2008,07,14,10,53,19.60
2008,07,14,10,54,19.60
2008,07,14,10,55,19.60
2008,07,14,10,56,19.60
2008,07,14,10,57,19.60
2008,07,14,10,58,19.70
2008,07,14,10,59,19.70
2008,07,14,11,00,19.70
2008,07,14,11,01,19.70
2008,07,14,11,02,19.70
2008,07,14,11,03,19.60
2008,07,14,11,04,19.60
2008,07,14,11,05,19.50
2008,07,14,11,06,19.50
2008,07,14,11,07,19.50
2008,07,14,11,08,19.40
2008,07,14,11,09,19.40
2008,07,14,11,10,19.50
2008,07,14,11,11,19.60
2008,07,14,11,12,19.60
2008,07,14,11,13,19.60
2008,07,14,11,14,19.70
2008,07,14,11,15,19.80
2008,07,14,11,16,19.80
2008,07,14,11,18,20.00
2008,07,14,11,19,20.10
2008,07,14,11,20,20.20
2008,07,14,11,21,20.20
2008,07,14,11,22,20.30
2008,07,14,11,23,20.40
2008,07,14,11,24,20.60
2008,07,14,11,25,20.70
2008,07,14,11,26,20.80
2008,07,14,11,27,20.80
2008,07,14,11,28,20.90
2008,07,14,11,29,21.10
2008,07,14,11,30,21.10
2008,07,14,11,31,21.20
2008,07,14,11,32,21.30
2008,07,14,11,33,21.30
2008,07,14,11,34,21.40
2008,07,14,11,35,21.50
2008,07,14,11,36,21.60
2008,07,14,11,37,21.60
2008,07,14,11,38,21.70
2008,07,14,11,39,21.70
2008,07,14,11,40,21.70
2008,07,14,11,41,21.70
2008,07,14,11,42,21.80
2008,07,14,11,43,21.80
2008,07,14,11,44,21.90
2008,07,14,11,45,21.90
2008,07,14,11,46,21.90
2008,07,14,11,47,22.00
2008,07,14,11,48,22.10
2008,07,14,11,49,22.10
2008,07,14,11,50,22.10
2008,07,14,11,51,22.20
2008,07,14,11,52,22.20
2008,07,14,11,53,22.30
2008,07,14,11,54,22.30
2008,07,14,11,55,22.40
2008,07,14,11,56,22.40
2008,07,14,11,57,22.50
2008,07,14,11,58,22.60
2008,07,14,11,59,22.60
2008,07,14,12,00,22.60
2008,07,14,12,01,22.60
2008,07,14,12,02,22.60
2008,07,14,12,03,22.60
2008,07,14,12,04,22.60
2008,07,14,12,05,22.50
2008,07,14,12,06,22.50
2008,07,14,12,07,22.50
2008,07,14,12,08,22.60
2008,07,14,12,09,22.60
2008,07,14,12,10,22.70
2008,07,14,12,11,22.70
2008,07,14,12,12,22.80
2008,07,14,12,13,22.80
2008,07,14,12,14,22.90
2008,07,14,12,15,23.10
2008,07,14,12,16,23.20
2008,07,14,12,17,23.20
2008,07,14,12,18,23.30
2008,07,14,12,19,23.40
2008,07,14,12,20,23.50
2008,07,14,12,21,23.70
2008,07,14,12,22,23.80
2008,07,14,12,23,23.90
2008,07,14,12,24,24.10
2008,07,14,12,25,24.30
2008,07,14,12,26,24.40
2008,07,14,12,27,24.60
2008,07,14,12,28,24.70
2008,07,14,12,29,24.70
2008,07,14,12,30,24.80
2008,07,14,12,31,24.90
2008,07,14,12,32,25.10
2008,07,14,12,33,25.10
2008,07,14,12,34,25.20
2008,07,14,12,35,25.30
2008,07,14,12,36,25.30
2008,07,14,12,37,25.40
2008,07,14,12,38,25.40
2008,07,14,12,39,25.40
2008,07,14,12,40,25.50
2008,07,14,12,41,25.50
2008,07,14,12,42,25.50
2008,07,14,12,43,25.60
2008,07,14,12,44,25.60
2008,07,14,12,45,25.60
2008,07,14,12,46,25.60
2008,07,14,12,47,25.60
2008,07,14,12,48,25.60
2008,07,14,12,49,25.60
2008,07,14,12,50,25.70
2008,07,14,12,51,25.70
2008,07,14,12,52,25.70
2008,07,14,12,53,25.70
2008,07,14,12,54,25.80
2008,07,14,12,55,25.80
2008,07,14,12,56,25.90
2008,07,14,12,57,25.90
2008,07,14,12,58,25.90
2008,07,14,12,59,26.00
2008,07,14,13,00,26.10
2008,07,14,13,01,26.20
2008,07,14,13,02,26.20
2008,07,14,13,03,26.20
2008,07,14,13,04,26.20
2008,07,14,13,05,26.30
2008,07,14,13,06,26.30
2008,07,14,13,07,26.30
2008,07,14,13,08,26.40
2008,07,14,13,09,26.40
2008,07,14,13,10,26.50
2008,07,14,13,11,26.50
2008,07,14,13,12,26.60
2008,07,14,13,13,26.60
2008,07,14,13,14,26.60
2008,07,14,13,15,26.60
2008,07,14,13,16,26.60
2008,07,14,13,17,26.60
2008,07,14,13,19,26.60
2008,07,14,13,20,26.50
2008,07,14,13,21,26.50
2008,07,14,13,22,26.50
2008,07,14,13,23,26.40
2008,07,14,13,24,26.40
2008,07,14,13,25,26.40
2008,07,14,13,26,26.40
2008,07,14,13,27,26.40
2008,07,14,13,28,26.40
2008,07,14,13,29,26.30
2008,07,14,13,30,26.30
2008,07,14,13,31,26.30
2008,07,14,13,32,26.30
2008,07,14,13,33,26.30
2008,07,14,13,34,26.30
2008,07,14,13,35,26.40
2008,07,14,13,36,26.40
2008,07,14,13,37,26.40
2008,07,14,13,38,26.50
2008,07,14,13,39,26.60
2008,07,14,13,40,26.60
2008,07,14,13,41,26.60
2008,07,14,13,42,26.60
2008,07,14,13,43,26.60
2008,07,14,13,44,26.60
2008,07,14,13,45,26.60
2008,07,14,13,46,26.70
2008,07,14,13,47,26.70
2008,07,14,13,48,26.80
2008,07,14,13,49,26.80
2008,07,14,13,50,26.80
2008,07,14,13,51,26.80
2008,07,14,13,52,26.90
2008,07,14,13,53,26.90
2008,07,14,13,54,26.90
2008,07,14,13,55,26.80
2008,07,14,13,56,26.80
2008,07,14,13,57,26.80
2008,07,14,13,58,26.70
2008,07,14,13,59,26.70
2008,07,14,14,00,26.70
2008,07,14,14,01,26.60
2008,07,14,14,02,26.60
2008,07,14,14,03,26.60
2008,07,14,14,04,26.60
2008,07,14,14,05,26.60
2008,07,14,14,06,26.60
2008,07,14,14,07,26.60
2008,07,14,14,08,26.60
2008,07,14,14,09,26.60
2008,07,14,14,10,26.60
2008,07,14,14,11,26.60
2008,07,14,14,12,26.60
2008,07,14,14,13,26.50
2008,07,14,14,14,26.40
2008,07,14,14,15,26.40
2008,07,14,14,16,26.30
2008,07,14,14,17,26.30
2008,07,14,14,18,26.20
2008,07,14,14,19,26.10
2008,07,14,14,20,26.10
2008,07,14,14,21,25.90
2008,07,14,14,22,25.90
2008,07,14,14,23,25.90
2008,07,14,14,24,25.80
2008,07,14,14,26,25.60
2008,07,14,14,27,25.60
2008,07,14,14,28,25.40
2008,07,14,14,29,25.30
2008,07,14,14,30,25.30
2008,07,14,14,31,25.30
2008,07,14,14,32,25.20
2008,07,14,14,33,25.20
2008,07,14,14,34,25.10
2008,07,14,14,35,25.00
2008,07,14,14,36,24.90
2008,07,14,14,37,24.90
2008,07,14,14,38,24.80
2008,07,14,14,39,24.80
2008,07,14,14,40,24.80
2008,07,14,14,41,24.80
2008,07,14,14,42,24.80
2008,07,14,14,43,24.70
2008,07,14,14,44,24.70
2008,07,14,14,45,24.60
2008,07,14,14,46,24.60
2008,07,14,14,47,24.50
2008,07,14,14,48,24.40
2008,07,14,14,49,24.40
2008,07,14,14,50,24.40
2008,07,14,14,51,24.30
2008,07,14,14,52,24.30
2008,07,14,14,53,24.30
2008,07,14,14,54,24.20
2008,07,14,14,55,24.20
2008,07,14,14,56,24.10
2008,07,14,14,57,24.10
2008,07,14,14,58,23.90
2008,07,14,14,59,23.80
2008,07,14,15,00,23.80
2008,07,14,15,01,23.70
2008,07,14,15,02,23.60
2008,07,14,15,03,23.60
2008,07,14,15,04,23.50
2008,07,14,15,05,23.40
2008,07,14,15,06,23.40
2008,07,14,15,07,23.30
2008,07,14,15,08,23.30
2008,07,14,15,09,23.30
2008,07,14,15,10,23.20
2008,07,14,15,11,23.20
2008,07,14,15,12,23.20
2008,07,14,15,13,23.10
2008,07,14,15,14,23.10
2008,07,14,15,15,23.10
2008,07,14,15,16,23.10
2008,07,14,15,17,23.10
2008,07,14,15,18,23.10
2008,07,14,15,19,23.00
2008,07,14,15,20,22.90
2008,07,14,15,21,22.90
2008,07,14,15,22,22.90
2008,07,14,15,23,22.80
2008,07,14,15,24,22.80
2008,07,14,15,25,22.80
2008,07,14,15,26,22.80
2008,07,14,15,27,22.70
2008,07,14,15,28,22.70
2008,07,14,15,29,22.70
2008,07,14,15,30,22.60
2008,07,14,15,31,22.60
2008,07,14,15,32,22.60
2008,07,14,15,33,22.60
2008,07,14,15,34,22.60
2008,07,14,15,35,22.60
2008,07,14,15,36,22.50
2008,07,14,15,37,22.50
2008,07,14,15,38,22.50
2008,07,14,15,39,22.50
2008,07,14,15,40,22.50
2008,07,14,15,41,22.40
2008,07,14,15,42,22.40
2008,07,14,15,43,22.40
2008,07,14,15,44,22.40
2008,07,14,15,45,22.40
2008,07,14,15,46,22.30
2008,07,14,15,47,22.30
2008,07,14,15,48,22.30
2008,07,14,15,49,22.30
2008,07,14,15,50,22.30
2008,07,14,15,51,22.30
2008,07,14,15,52,22.30
2008,07,14,15,53,22.30
2008,07,14,15,54,22.30
2008,07,14,15,55,22.30
2008,07,14,15,56,22.20
2008,07,14,15,57,22.20
2008,07,14,15,58,22.20
2008,07,14,15,59,22.20
2008,07,14,16,00,22.20
2008,07,14,16,01,22.20
2008,07,14,16,02,22.20
2008,07,14,16,03,22.20
2008,07,14,16,04,22.20
2008,07,14,16,05,22.20
2008,07,14,16,06,22.20
2008,07,14,16,07,22.30
2008,07,14,16,08,22.30
2008,07,14,16,09,22.30
2008,07,14,16,10,22.30
2008,07,14,16,11,22.30
2008,07,14,16,12,22.30
2008,07,14,16,13,22.30
2008,07,14,16,14,22.30
2008,07,14,16,15,22.30
2008,07,14,16,16,22.30
2008,07,14,16,17,22.30
2008,07,14,16,18,22.30
2008,07,14,16,19,22.40
2008,07,14,16,20,22.40
2008,07,14,16,21,22.40
2008,07,14,16,22,22.40
2008,07,14,16,23,22.50
2008,07,14,16,24,22.50
2008,07,14,16,25,22.60
2008,07,14,16,26,22.60
2008,07,14,16,27,22.60
2008,07,14,16,28,22.60
2008,07,14,16,29,22.60
2008,07,14,16,30,22.60
2008,07,14,16,31,22.60
2008,07,14,16,32,22.60
2008,07,14,16,33,22.70
2008,07,14,16,34,22.70
2008,07,14,16,35,22.70
2008,07,14,16,36,22.80
2008,07,14,16,37,22.80
2008,07,14,16,38,22.90
2008,07,14,16,39,23.00
2008,07,14,16,40,23.10
2008,07,14,16,41,23.20
2008,07,14,16,42,23.30
2008,07,14,16,43,23.40
2008,07,14,16,44,23.60
2008,07,14,16,45,23.70
2008,07,14,16,46,23.80
2008,07,14,16,47,23.90
2008,07,14,16,48,24.10
2008,07,14,16,49,24.30
2008,07,14,16,50,24.40
2008,07,14,16,51,24.50
2008,07,14,16,52,24.70
2008,07,14,16,53,24.80
2008,07,14,16,54,25.00
2008,07,14,16,55,25.20
2008,07,14,16,56,25.30
2008,07,14,16,57,25.40
2008,07,14,16,58,25.60
2008,07,14,16,59,25.70
2008,07,14,17,00,25.80
2008,07,14,17,01,25.90
2008,07,14,17,02,26.00
2008,07,14,17,03,26.20
2008,07,14,17,04,26.30
2008,07,14,17,05,26.40
2008,07,14,17,06,26.40
2008,07,14,17,07,26.40
2008,07,14,17,08,26.40
2008,07,14,17,09,26.50
2008,07,14,17,10,26.50
2008,07,14,17,11,26.60
2008,07,14,17,12,26.50
2008,07,14,17,13,26.40
2008,07,14,17,14,26.30
2008,07,14,17,15,26.30
2008,07,14,17,16,26.20
2008,07,14,17,17,26.20
2008,07,14,17,18,26.20
2008,07,14,17,19,26.20
2008,07,14,17,20,26.30
2008,07,14,17,21,26.30
2008,07,14,17,22,26.30
2008,07,14,17,23,26.30
2008,07,14,17,24,26.30
2008,07,14,17,25,26.30
2008,07,14,17,26,26.40
2008,07,14,17,27,26.40
2008,07,14,17,28,26.40
2008,07,14,17,29,26.40